Flag for Netherlands

Past Weather in Abcoude, Netherlands — Yesterday and Last 2 Weeks

Now
75 °F

Sunny.


Feels Like: 77 °F
Forecast: 88 / 70 °F
Wind: 9 mph from East

Location: Amsterdam Schiphol Airport

Current Time: Aug 11, 2020 at 9:52:32 am

Latest Report: Aug 11, 2020 at 8:55 am


Visibility: 10 mi

Pressure: 29.98 "Hg

Humidity: 65%

Dew Point: 63 °F

Location of AbcoudeLocation

Past Weather in Abcoude — Graph

°F

Abcoude Temperature Yesterday

Maximum temperature yesterday: 90 °F (at 3:55 pm)
Minimum temperature yesterday: 66 °F (at 5:25 am)
Average temperature yesterday: 79 °F

High & Low Weather Summary for the Past Weeks

 TemperatureHumidityPressure
High91 °F (Aug 7, 2:55 pm)94% (Jul 30, 12:25 am)30.15 "Hg (Jul 30, 12:25 am)
Low48 °F (Aug 4, 6:25 am)27% (Aug 7, 1:55 pm)29.68 "Hg (Jul 27, 6:25 pm)
Average70 °F66%29.99 "Hg
* Reported Jul 27 8:25 am — Aug 11 8:25 am, Abcoude. Weather by CustomWeather, © 2020

Note: Actual official high and low records may vary slightly from our data, if they occured in-between our weather recording intervals... More about our weather records

Abcoude Weather History for the Previous 24 Hours

Scroll right to see more
 ConditionsComfort  
Time TempWeatherWind HumidityBarometerVisibility
8:25 am
Tue, Aug 11
75 °FSunny.10 mph65%29.98 "Hg10 mi
7:55 am73 °FSunny.10 mph69%29.98 "Hg10 mi
7:25 am73 °FPassing clouds.9 mph69%29.95 "HgN/A
6:55 am72 °FSunny.9 mph73%29.95 "Hg10 mi
6:25 am72 °FSunny.8 mph73%29.95 "Hg10 mi
5:55 am72 °FClear.8 mph73%29.95 "Hg10 mi
5:25 am73 °FClear.10 mph69%29.95 "Hg10 mi
4:55 am72 °FClear.9 mph73%29.95 "Hg10 mi
4:25 am72 °FClear.9 mph73%29.95 "Hg10 mi
3:55 am72 °FClear.9 mph73%29.95 "Hg10 mi
2:55 am72 °FClear.8 mph73%29.98 "Hg10 mi
2:25 am72 °FClear.7 mph73%29.98 "Hg10 mi
1:55 am75 °FClear.8 mph65%29.98 "Hg10 mi
1:25 am73 °FClear.10 mph69%29.98 "Hg10 mi
12:55 am73 °FClear.8 mph74%29.98 "Hg10 mi
12:25 am75 °FClear.8 mph74%29.98 "Hg10 mi
11:55 pm
Mon, Aug 10
77 °FClear.8 mph74%29.98 "Hg10 mi
11:25 pm77 °FPassing clouds.7 mph74%29.98 "HgN/A
10:55 pm77 °FClear.6 mph69%29.98 "Hg10 mi
10:25 pm77 °FClear.7 mph65%29.95 "Hg10 mi
9:55 pm79 °FClear.7 mph61%29.95 "Hg10 mi
9:25 pm79 °FClear.6 mph61%29.95 "Hg10 mi
8:55 pm81 °FSunny.7 mph58%29.95 "Hg10 mi
8:25 pm84 °FSunny.8 mph48%29.95 "Hg10 mi
7:55 pm86 °FSunny.8 mph46%29.92 "Hg10 mi
7:25 pm88 °FPassing clouds.10 mph43%29.92 "HgN/A
6:55 pm88 °FSunny.12 mph43%29.92 "Hg10 mi
6:25 pm88 °FPassing clouds.8 mph43%29.92 "HgN/A
5:55 pm90 °FPassing clouds.10 mph43%29.95 "HgN/A
5:25 pm88 °FPassing clouds.10 mph46%29.95 "HgN/A
4:55 pm88 °FPassing clouds.10 mph46%29.95 "HgN/A
4:25 pm88 °FPassing clouds.12 mph46%29.95 "HgN/A
3:55 pm90 °FPassing clouds.13 mph46%29.95 "HgN/A
3:25 pm88 °FPassing clouds.13 mph49%29.95 "HgN/A
2:55 pm88 °FPassing clouds.10 mph49%29.98 "HgN/A
2:25 pm86 °FPassing clouds.10 mph49%29.98 "HgN/A
1:55 pm84 °FPassing clouds.9 mph55%29.98 "HgN/A
1:25 pm86 °FPassing clouds.10 mph49%29.98 "HgN/A
12:55 pm82 °FPassing clouds.12 mph55%29.98 "HgN/A
12:25 pm84 °FSunny.12 mph55%29.98 "Hg10 mi
11:55 am82 °FPassing clouds.12 mph55%29.98 "HgN/A
11:25 am82 °FPassing clouds.10 mph55%29.98 "HgN/A
10:55 am81 °FPassing clouds.14 mph58%29.98 "HgN/A
10:25 am81 °FPassing clouds.12 mph58%29.98 "HgN/A
9:55 am81 °FSunny.10 mph58%29.98 "Hg10 mi
9:25 am79 °FSunny.9 mph61%29.98 "Hg10 mi
Weather by CustomWeather, © 2020

See weather overview